CHH7317 ZJHK-ZGHA

Flight info

Callsign CHH7317
Flight time 1h 29m
Altitude 25600
Route AGTEL9XD AGTEL W71 LH R339 BHY W159 IVPUB W120 ENKUS R343 AVNEL W618 SEBMO W227 RUKLI RUK1X
Aircraft A20N/M-SDE2E3FGHIRWXY/LB1

Departure

Time 2026-04-28 19:55
Airport Haikou Meilan International Airport (ZJHK)

Arrival

Time 2026-04-28 21:24
Airport Changsha Huanghua International Airport (ZGHA)
Time Latitude Longitude Altitude Speed Heading
2026-04-28 19:43 19.94797 110.45188 63 ft 0 kts 225°
2026-04-28 19:49 19.94804 110.45197 63 ft 2 kts 225°
2026-04-28 19:49 19.94815 110.45207 63 ft 2 kts 225°
2026-04-28 19:50 19.94827 110.45223 63 ft 2 kts 256°
2026-04-28 19:50 19.94828 110.45239 63 ft 2 kts 288°
2026-04-28 19:50 19.94820 110.45252 63 ft 2 kts 320°
2026-04-28 19:51 19.94814 110.45258 64 ft 0 kts 316°
2026-04-28 19:51 19.94813 110.45258 64 ft 0 kts 316°
2026-04-28 19:52 19.94814 110.45258 63 ft 0 kts 316°
2026-04-28 19:52 19.94836 110.45237 63 ft 10 kts 321°
2026-04-28 19:52 19.94889 110.45179 62 ft 11 kts 308°
2026-04-28 19:53 19.94905 110.45089 60 ft 15 kts 269°
2026-04-28 19:53 19.94943 110.44997 59 ft 12 kts 314°
2026-04-28 19:53 19.95007 110.44927 58 ft 13 kts 314°
2026-04-28 19:53 19.95070 110.44849 58 ft 14 kts 308°
2026-04-28 19:54 19.95161 110.44818 58 ft 14 kts 359°
2026-04-28 19:54 19.95263 110.44817 58 ft 14 kts 360°
2026-04-28 19:54 19.95356 110.44860 58 ft 15 kts 39°
2026-04-28 19:54 19.95371 110.44962 57 ft 16 kts 89°
2026-04-28 19:55 19.95374 110.45320 60 ft 83 kts 90°
2026-04-28 19:55 19.95376 110.46163 61 ft 143 kts 89°
2026-04-28 19:55 19.95379 110.47357 275 ft 170 kts 90°
2026-04-28 19:55 19.95451 110.48622 803 ft 175 kts 78°
2026-04-28 19:56 19.95937 110.49802 1390 ft 180 kts 52°
2026-04-28 19:56 19.96975 110.50501 1936 ft 179 kts
2026-04-28 19:56 19.98179 110.50281 2306 ft 179 kts 320°
2026-04-28 19:56 19.99176 110.49493 2836 ft 182 kts 327°
2026-04-28 19:57 20.00366 110.49004 3383 ft 185 kts 336°
2026-04-28 19:57 20.01587 110.48448 3763 ft 197 kts 328°
2026-04-28 19:57 20.02863 110.47754 4113 ft 214 kts 329°
2026-04-28 19:57 20.04277 110.47034 4389 ft 237 kts 331°
2026-04-28 19:58 20.05817 110.46307 4979 ft 247 kts 333°
2026-04-28 19:58 20.07409 110.45591 5709 ft 250 kts 333°
2026-04-28 19:58 20.09005 110.44888 6475 ft 250 kts 333°
2026-04-28 19:58 20.10605 110.44187 7182 ft 253 kts 333°
2026-04-28 19:59 20.12248 110.43471 7873 ft 257 kts 333°
2026-04-28 19:59 20.13913 110.42746 8567 ft 260 kts 334°
2026-04-28 19:59 20.15593 110.42017 9234 ft 263 kts 334°
2026-04-28 19:59 20.17285 110.41285 9912 ft 266 kts 334°
2026-04-28 20:00 20.19016 110.40536 10575 ft 269 kts 334°
2026-04-28 20:00 20.20750 110.39786 11221 ft 272 kts 333°
2026-04-28 20:00 20.22509 110.39024 11842 ft 275 kts 334°
2026-04-28 20:00 20.24283 110.38254 12445 ft 279 kts 333°
2026-04-28 20:01 20.26136 110.37522 13051 ft 285 kts 337°
2026-04-28 20:01 20.28045 110.36854 13395 ft 299 kts 338°
2026-04-28 20:01 20.30077 110.36156 13677 ft 315 kts 338°
2026-04-28 20:01 20.32249 110.35412 13954 ft 331 kts 338°
2026-04-28 20:02 20.34497 110.34642 14219 ft 347 kts 338°
2026-04-28 20:02 20.36837 110.33839 14470 ft 361 kts 338°
2026-04-28 20:02 20.39284 110.33000 14710 ft 376 kts 338°
2026-04-28 20:02 20.41830 110.32127 14943 ft 389 kts 338°
2026-04-28 20:03 20.44430 110.31235 15160 ft 402 kts 338°
2026-04-28 20:03 20.47140 110.30337 15362 ft 415 kts 341°
2026-04-28 20:03 20.50024 110.29723 15551 ft 430 kts 349°
2026-04-28 20:03 20.53078 110.29517 15792 ft 442 kts 357°
2026-04-28 20:04 20.56187 110.29652 16202 ft 447 kts 360°
2026-04-28 20:04 20.59304 110.29864 16631 ft 451 kts
2026-04-28 20:04 20.62464 110.30090 17059 ft 454 kts
2026-04-28 20:04 20.65588 110.30309 17462 ft 456 kts
2026-04-28 20:05 20.68779 110.30528 17861 ft 459 kts
2026-04-28 20:05 20.71973 110.30743 18260 ft 461 kts
2026-04-28 20:05 20.75201 110.30956 18647 ft 464 kts
2026-04-28 20:05 20.78461 110.31171 19016 ft 466 kts
2026-04-28 20:06 20.81672 110.31382 19381 ft 468 kts
2026-04-28 20:06 20.84943 110.31598 19746 ft 470 kts
2026-04-28 20:06 20.88247 110.31815 20097 ft 473 kts
2026-04-28 20:06 20.91543 110.32033 20427 ft 475 kts
2026-04-28 20:07 20.94827 110.32250 20764 ft 477 kts
2026-04-28 20:07 20.97039 110.32394 20996 ft 478 kts
2026-04-28 20:07 21.01484 110.32674 21424 ft 480 kts
2026-04-28 20:07 21.04847 110.32855 21722 ft 482 kts
2026-04-28 20:08 21.08195 110.32859 21999 ft 481 kts 351°
2026-04-28 20:08 21.11421 110.31932 22260 ft 476 kts 333°
2026-04-28 20:08 21.14218 110.30100 22540 ft 472 kts 317°
2026-04-28 20:08 21.16411 110.27553 22812 ft 468 kts 302°
2026-04-28 20:09 21.18040 110.24510 23101 ft 466 kts 296°
2026-04-28 20:09 21.19549 110.21474 23362 ft 468 kts 296°
2026-04-28 20:09 21.21094 110.18369 23719 ft 467 kts 296°
2026-04-28 20:09 21.22600 110.15347 24039 ft 466 kts 296°
2026-04-28 20:10 21.24148 110.12253 24280 ft 468 kts 296°
2026-04-28 20:10 21.25672 110.09213 24520 ft 468 kts 296°
2026-04-28 20:10 21.27226 110.06119 24779 ft 469 kts 296°
2026-04-28 20:10 21.28755 110.03073 24986 ft 470 kts 296°
2026-04-28 20:11 21.30307 109.99977 25182 ft 472 kts 296°
2026-04-28 20:11 21.31872 109.96859 25366 ft 473 kts 296°
2026-04-28 20:11 21.33419 109.93775 25393 ft 473 kts 296°
2026-04-28 20:11 21.34974 109.90670 25400 ft 473 kts 296°
2026-04-28 20:12 21.36540 109.87547 25404 ft 473 kts 297°
2026-04-28 20:12 21.38096 109.84438 25405 ft 473 kts 297°
2026-04-28 20:12 21.39640 109.81353 25405 ft 473 kts 296°
2026-04-28 20:12 21.40673 109.79288 25406 ft 473 kts 296°
2026-04-28 20:13 21.42740 109.75153 25406 ft 473 kts 296°
2026-04-28 20:13 21.44289 109.72053 25407 ft 473 kts 296°
2026-04-28 20:13 21.45857 109.68913 25408 ft 472 kts 296°
2026-04-28 20:13 21.47400 109.65819 25408 ft 471 kts 296°
2026-04-28 20:14 21.48935 109.62738 25410 ft 472 kts 296°
2026-04-28 20:14 21.50478 109.59641 25412 ft 472 kts 296°
2026-04-28 20:14 21.52023 109.56538 25415 ft 472 kts 296°
2026-04-28 20:14 21.53565 109.53437 25418 ft 472 kts 296°
2026-04-28 20:15 21.55114 109.50321 25422 ft 473 kts 296°
2026-04-28 20:15 21.56796 109.47303 25406 ft 475 kts 306°
2026-04-28 20:15 21.59180 109.44796 25418 ft 479 kts 321°
2026-04-28 20:15 21.62085 109.43079 25421 ft 485 kts 337°
2026-04-28 20:16 21.65380 109.42217 25434 ft 490 kts 350°
2026-04-28 20:16 21.68796 109.41770 25432 ft 491 kts 351°
2026-04-28 20:16 21.72179 109.41352 25431 ft 491 kts 351°
2026-04-28 20:16 21.75618 109.40928 25432 ft 491 kts 351°
2026-04-28 20:17 21.79010 109.40505 25434 ft 491 kts 351°
2026-04-28 20:17 21.82386 109.40076 25436 ft 491 kts 351°
2026-04-28 20:17 21.85801 109.39637 25437 ft 492 kts 351°
2026-04-28 20:17 21.89213 109.39197 25437 ft 491 kts 351°
2026-04-28 20:18 21.92583 109.38763 25437 ft 492 kts 351°
2026-04-28 20:18 21.94881 109.38464 25438 ft 492 kts 351°
2026-04-28 20:18 21.99393 109.37882 25439 ft 492 kts 351°
2026-04-28 20:18 22.02791 109.37440 25437 ft 492 kts 351°
2026-04-28 20:19 22.06238 109.36991 25436 ft 492 kts 351°
2026-04-28 20:19 22.09619 109.36552 25435 ft 492 kts 351°
2026-04-28 20:19 22.13018 109.36114 25434 ft 492 kts 351°
2026-04-28 20:19 22.16417 109.35671 25435 ft 492 kts 351°
2026-04-28 20:20 22.19832 109.35227 25437 ft 493 kts 351°
2026-04-28 20:20 22.23234 109.34793 25439 ft 493 kts 352°
2026-04-28 20:20 22.26697 109.34588 25443 ft 496 kts 357°
2026-04-28 20:20 22.30157 109.34718 25443 ft 497 kts
2026-04-28 20:21 22.33579 109.35180 25446 ft 499 kts
2026-04-28 20:21 22.37027 109.35824 25448 ft 500 kts
2026-04-28 20:21 22.40460 109.36510 25450 ft 500 kts
2026-04-28 20:21 22.43861 109.37199 25453 ft 500 kts
2026-04-28 20:22 22.47294 109.37887 25456 ft 500 kts
2026-04-28 20:22 22.50705 109.38567 25459 ft 500 kts
2026-04-28 20:22 22.54150 109.39251 25460 ft 501 kts
2026-04-28 20:22 22.57577 109.39927 25461 ft 501 kts
2026-04-28 20:23 22.61003 109.40603 25461 ft 501 kts
2026-04-28 20:23 22.64455 109.41283 25459 ft 500 kts
2026-04-28 20:23 22.67873 109.41959 25457 ft 500 kts
2026-04-28 20:23 22.70185 109.42416 25455 ft 501 kts
2026-04-28 20:24 22.74757 109.43317 25455 ft 500 kts
2026-04-28 20:24 22.78159 109.43988 25456 ft 501 kts
2026-04-28 20:24 22.81615 109.44669 25456 ft 501 kts
2026-04-28 20:24 22.85038 109.45345 25457 ft 501 kts
2026-04-28 20:25 22.88479 109.46024 25456 ft 501 kts
2026-04-28 20:25 22.91889 109.46699 25457 ft 500 kts
2026-04-28 20:25 22.95337 109.47382 25456 ft 501 kts
2026-04-28 20:25 22.98785 109.48065 25458 ft 501 kts
2026-04-28 20:26 23.02222 109.48747 25460 ft 502 kts
2026-04-28 20:26 23.05657 109.49428 25461 ft 502 kts
2026-04-28 20:26 23.09103 109.50111 25466 ft 502 kts
2026-04-28 20:26 23.12510 109.50788 25470 ft 502 kts
2026-04-28 20:27 23.15976 109.51477 25475 ft 502 kts
2026-04-28 20:27 23.19378 109.52155 25480 ft 502 kts
2026-04-28 20:27 23.22816 109.52842 25482 ft 502 kts
2026-04-28 20:27 23.26281 109.53533 25485 ft 502 kts
2026-04-28 20:28 23.29724 109.54221 25486 ft 502 kts
2026-04-28 20:28 23.33163 109.54907 25486 ft 502 kts
2026-04-28 20:28 23.36615 109.55596 25484 ft 502 kts
2026-04-28 20:28 23.40029 109.56278 25484 ft 502 kts
2026-04-28 20:29 23.43491 109.56971 25482 ft 503 kts
2026-04-28 20:29 23.46939 109.57659 25479 ft 503 kts
2026-04-28 20:29 23.50355 109.58341 25479 ft 503 kts
2026-04-28 20:29 23.53798 109.59030 25477 ft 503 kts
2026-04-28 20:30 23.57247 109.59722 25480 ft 503 kts
2026-04-28 20:30 23.60691 109.60413 25478 ft 502 kts
2026-04-28 20:30 23.64129 109.61100 25475 ft 502 kts
2026-04-28 20:30 23.67606 109.61798 25479 ft 502 kts
2026-04-28 20:31 23.71034 109.62483 25481 ft 502 kts
2026-04-28 20:31 23.74468 109.63168 25479 ft 503 kts
2026-04-28 20:31 23.77892 109.63854 25479 ft 503 kts
2026-04-28 20:31 23.81369 109.64549 25480 ft 502 kts
2026-04-28 20:32 23.84781 109.65233 25480 ft 503 kts
2026-04-28 20:32 23.88259 109.65932 25478 ft 503 kts
2026-04-28 20:32 23.91680 109.66619 25475 ft 503 kts
2026-04-28 20:32 23.95162 109.67318 25472 ft 504 kts
2026-04-28 20:33 23.98599 109.68008 25476 ft 503 kts
2026-04-28 20:33 24.02011 109.68696 25476 ft 503 kts
2026-04-28 20:33 24.05478 109.69395 25482 ft 504 kts
2026-04-28 20:33 24.08916 109.70088 25484 ft 504 kts
2026-04-28 20:34 24.12384 109.70788 25488 ft 504 kts
2026-04-28 20:34 24.15843 109.71486 25490 ft 504 kts
2026-04-28 20:34 24.19276 109.72179 25500 ft 505 kts
2026-04-28 20:34 24.22730 109.72876 25504 ft 505 kts
2026-04-28 20:35 24.26221 109.73581 25504 ft 505 kts
2026-04-28 20:35 24.29679 109.74280 25506 ft 506 kts
2026-04-28 20:35 24.33119 109.74975 25506 ft 506 kts
2026-04-28 20:35 24.36618 109.75683 25505 ft 507 kts
2026-04-28 20:36 24.40078 109.76383 25505 ft 507 kts
2026-04-28 20:36 24.43575 109.77093 25505 ft 507 kts
2026-04-28 20:36 24.47007 109.77789 25507 ft 507 kts
2026-04-28 20:36 24.50520 109.78503 25507 ft 508 kts
2026-04-28 20:37 24.53984 109.79206 25511 ft 508 kts
2026-04-28 20:37 24.57462 109.79913 25517 ft 508 kts
2026-04-28 20:37 24.60930 109.80618 25518 ft 508 kts
2026-04-28 20:37 24.64407 109.81419 25521 ft 510 kts 14°
2026-04-28 20:38 24.67794 109.82673 25526 ft 512 kts 21°
2026-04-28 20:38 24.70977 109.84381 25531 ft 513 kts 29°
2026-04-28 20:38 24.74001 109.86481 25541 ft 514 kts 33°
2026-04-28 20:38 24.76956 109.88675 25543 ft 514 kts 34°
2026-04-28 20:39 24.79896 109.90892 25540 ft 515 kts 34°
2026-04-28 20:39 24.82882 109.93141 25540 ft 515 kts 34°
2026-04-28 20:39 24.85829 109.95351 25545 ft 515 kts 34°
2026-04-28 20:39 24.88807 109.97575 25548 ft 515 kts 34°
2026-04-28 20:40 24.91766 109.99780 25548 ft 517 kts 33°
2026-04-28 20:40 24.94744 110.01997 25553 ft 517 kts 33°
2026-04-28 20:40 24.97741 110.04227 25555 ft 517 kts 33°
2026-04-28 20:40 25.00703 110.06433 25551 ft 518 kts 33°
2026-04-28 20:41 25.03684 110.08652 25554 ft 517 kts 33°
2026-04-28 20:41 25.06667 110.10876 25560 ft 518 kts 33°
2026-04-28 20:41 25.09656 110.13106 25559 ft 519 kts 33°
2026-04-28 20:41 25.12653 110.15343 25555 ft 518 kts 33°
2026-04-28 20:42 25.15630 110.17568 25561 ft 518 kts 33°
2026-04-28 20:42 25.18609 110.19795 25563 ft 518 kts 33°
2026-04-28 20:42 25.21608 110.22035 25565 ft 518 kts 33°
2026-04-28 20:42 25.24621 110.24271 25567 ft 519 kts 33°
2026-04-28 20:43 25.27622 110.26495 25569 ft 519 kts 33°
2026-04-28 20:43 25.30592 110.28699 25576 ft 519 kts 33°
2026-04-28 20:43 25.33584 110.30923 25578 ft 520 kts 33°
2026-04-28 20:43 25.36583 110.33154 25582 ft 520 kts 33°
2026-04-28 20:44 25.39597 110.35400 25586 ft 520 kts 33°
2026-04-28 20:44 25.42598 110.37636 25588 ft 520 kts 33°
2026-04-28 20:44 25.45601 110.39861 25593 ft 521 kts 32°
2026-04-28 20:44 25.48627 110.42086 25603 ft 521 kts 32°
2026-04-28 20:45 25.51673 110.44325 25606 ft 522 kts 32°
2026-04-28 20:45 25.54659 110.46522 25612 ft 523 kts 32°
2026-04-28 20:45 25.57708 110.48743 25613 ft 522 kts 31°
2026-04-28 20:45 25.60794 110.50896 25611 ft 522 kts 30°
2026-04-28 20:46 25.63901 110.53027 25616 ft 522 kts 30°
2026-04-28 20:46 25.66994 110.55147 25614 ft 522 kts 30°
2026-04-28 20:46 25.70062 110.57265 25618 ft 522 kts 30°
2026-04-28 20:46 25.73126 110.59390 25619 ft 523 kts 30°
2026-04-28 20:47 25.76224 110.61534 25627 ft 523 kts 30°
2026-04-28 20:47 25.79298 110.63623 25629 ft 522 kts 29°
2026-04-28 20:47 25.82440 110.65739 25633 ft 523 kts 30°
2026-04-28 20:47 25.85558 110.67837 25634 ft 522 kts 30°
2026-04-28 20:48 25.88653 110.69927 25637 ft 522 kts 30°
2026-04-28 20:48 25.91726 110.72006 25633 ft 522 kts 30°
2026-04-28 20:48 25.94844 110.74120 25641 ft 523 kts 30°
2026-04-28 20:48 25.97941 110.76220 25649 ft 524 kts 30°
2026-04-28 20:49 26.01050 110.78334 25655 ft 524 kts 30°
2026-04-28 20:49 26.04157 110.80447 25655 ft 524 kts 30°
2026-04-28 20:49 26.07284 110.82571 25652 ft 524 kts 30°
2026-04-28 20:49 26.10395 110.84676 25652 ft 524 kts 30°
2026-04-28 20:50 26.13497 110.86773 25651 ft 525 kts 30°
2026-04-28 20:50 26.16633 110.88893 25647 ft 525 kts 29°
2026-04-28 20:50 26.19761 110.91011 25650 ft 525 kts 30°
2026-04-28 20:50 26.22887 110.93134 25656 ft 525 kts 30°
2026-04-28 20:51 26.25999 110.95248 25653 ft 525 kts 30°
2026-04-28 20:51 26.29135 110.97379 25655 ft 525 kts 29°
2026-04-28 20:51 26.32234 110.99485 25653 ft 526 kts 29°
2026-04-28 20:51 26.34314 111.00903 25656 ft 525 kts 29°
2026-04-28 20:52 26.38456 111.03723 25654 ft 525 kts 29°
2026-04-28 20:52 26.41584 111.05855 25656 ft 524 kts 29°
2026-04-28 20:52 26.44685 111.07970 25653 ft 524 kts 29°
2026-04-28 20:52 26.47809 111.10103 25656 ft 525 kts 30°
2026-04-28 20:53 26.54038 111.14362 25654 ft 526 kts 29°
2026-04-28 20:53 26.57149 111.16491 25656 ft 527 kts 29°
2026-04-28 20:53 26.60288 111.18671 25654 ft 527 kts 30°
2026-04-28 20:54 26.63356 111.20897 25656 ft 528 kts 31°
2026-04-28 20:54 26.66411 111.23151 25655 ft 528 kts 31°
2026-04-28 20:54 26.69468 111.25409 25657 ft 527 kts 31°
2026-04-28 20:54 26.72550 111.27683 25659 ft 528 kts 31°
2026-04-28 20:55 26.75631 111.29948 25658 ft 529 kts 31°
2026-04-28 20:55 26.78674 111.32185 25656 ft 527 kts 31°
2026-04-28 20:55 26.81765 111.34454 25657 ft 527 kts 31°
2026-04-28 20:55 26.84807 111.36693 25659 ft 526 kts 31°
2026-04-28 20:56 26.87856 111.38933 25657 ft 527 kts 31°
2026-04-28 20:56 26.90928 111.41187 25656 ft 527 kts 30°
2026-04-28 20:56 26.94057 111.43334 25656 ft 527 kts 28°
2026-04-28 20:56 26.97218 111.45422 25656 ft 527 kts 27°
2026-04-28 20:57 27.00367 111.47478 25657 ft 526 kts 27°
2026-04-28 20:57 27.03525 111.49542 25661 ft 526 kts 27°
2026-04-28 20:57 27.06730 111.51646 25655 ft 527 kts 27°
2026-04-28 20:57 27.09899 111.53732 25660 ft 528 kts 27°
2026-04-28 20:58 27.13029 111.55799 25658 ft 528 kts 27°
2026-04-28 20:58 27.16193 111.57890 25660 ft 526 kts 27°
2026-04-28 20:58 27.19351 111.59996 25658 ft 528 kts 28°
2026-04-28 20:58 27.22459 111.62128 25666 ft 527 kts 28°
2026-04-28 20:59 27.25592 111.64304 25662 ft 527 kts 28°
2026-04-28 20:59 27.28730 111.66483 25662 ft 528 kts 29°
2026-04-28 20:59 27.31860 111.68657 25661 ft 529 kts 29°
2026-04-28 20:59 27.34978 111.70821 25657 ft 528 kts 29°
2026-04-28 21:00 27.38109 111.72993 25659 ft 529 kts 29°
2026-04-28 21:00 27.41243 111.75167 25656 ft 529 kts 29°
2026-04-28 21:00 27.44368 111.77334 25652 ft 529 kts 29°
2026-04-28 21:00 27.47551 111.79433 25652 ft 527 kts 26°
2026-04-28 21:01 27.50796 111.81293 25648 ft 525 kts 22°
2026-04-28 21:01 27.54130 111.82922 25654 ft 523 kts 18°
2026-04-28 21:01 27.57531 111.84386 25658 ft 523 kts 17°
2026-04-28 21:01 27.60947 111.85805 25662 ft 524 kts 17°
2026-04-28 21:02 27.64386 111.87226 25660 ft 522 kts 17°
2026-04-28 21:02 27.67785 111.88639 25667 ft 522 kts 17°
2026-04-28 21:02 27.71196 111.90069 25671 ft 523 kts 17°
2026-04-28 21:02 27.74632 111.91513 25677 ft 523 kts 17°
2026-04-28 21:03 27.78002 111.92980 25673 ft 527 kts 20°
2026-04-28 21:03 27.81198 111.95059 25670 ft 532 kts 34°
2026-04-28 21:03 27.83941 111.97868 25675 ft 537 kts 47°
2026-04-28 21:03 27.86168 112.01282 25689 ft 538 kts 56°
2026-04-28 21:04 27.88171 112.04833 25679 ft 539 kts 58°
2026-04-28 21:04 27.90133 112.08405 25679 ft 539 kts 58°
2026-04-28 21:04 27.92146 112.12033 25680 ft 539 kts 57°
2026-04-28 21:04 27.94138 112.15557 25675 ft 540 kts 57°
2026-04-28 21:05 27.96177 112.19125 25323 ft 542 kts 57°
2026-04-28 21:05 27.97973 112.22837 24688 ft 538 kts 68°
2026-04-28 21:05 27.98973 112.26881 23770 ft 531 kts 83°
2026-04-28 21:05 27.99122 112.30964 22628 ft 516 kts 95°
2026-04-28 21:06 27.98842 112.34938 21399 ft 502 kts 97°
2026-04-28 21:06 27.98528 112.38736 20678 ft 483 kts 97°
2026-04-28 21:06 27.98240 112.42497 20073 ft 474 kts 96°
2026-04-28 21:06 27.97984 112.46129 19470 ft 466 kts 96°
2026-04-28 21:07 27.97749 112.49757 18865 ft 460 kts 95°
2026-04-28 21:07 27.97599 112.52152 18454 ft 458 kts 95°
2026-04-28 21:07 27.97302 112.56886 17647 ft 454 kts 95°
2026-04-28 21:07 27.97080 112.60425 17033 ft 452 kts 95°
2026-04-28 21:08 27.96857 112.63963 16416 ft 451 kts 95°
2026-04-28 21:08 27.96634 112.67507 15785 ft 448 kts 95°
2026-04-28 21:08 27.96417 112.70953 15172 ft 445 kts 95°
2026-04-28 21:08 27.96195 112.74445 14542 ft 442 kts 95°
2026-04-28 21:09 27.95975 112.77885 13906 ft 439 kts 94°
2026-04-28 21:09 27.95755 112.81291 13269 ft 436 kts 94°
2026-04-28 21:09 27.95538 112.84686 12634 ft 431 kts 94°
2026-04-28 21:09 27.95354 112.88013 12168 ft 422 kts 90°
2026-04-28 21:10 27.95699 112.91263 11771 ft 409 kts 74°
2026-04-28 21:10 27.96706 112.94209 11451 ft 395 kts 62°
2026-04-28 21:10 27.97989 112.96862 11175 ft 383 kts 59°
2026-04-28 21:10 27.99269 112.99455 10975 ft 369 kts 59°
2026-04-28 21:11 28.00481 113.01937 10774 ft 356 kts 60°
2026-04-28 21:11 28.01662 113.04382 10527 ft 346 kts 60°
2026-04-28 21:11 28.02779 113.06712 10374 ft 333 kts 60°
2026-04-28 21:11 28.03859 113.08969 10253 ft 320 kts 60°
2026-04-28 21:12 28.04891 113.11139 10071 ft 309 kts 60°
2026-04-28 21:12 28.05893 113.13245 9905 ft 299 kts 60°
2026-04-28 21:12 28.06880 113.15320 9560 ft 296 kts 60°
2026-04-28 21:12 28.07842 113.17340 9226 ft 293 kts 60°
2026-04-28 21:13 28.08809 113.19374 8897 ft 290 kts 60°
2026-04-28 21:13 28.09752 113.21369 8577 ft 286 kts 62°
2026-04-28 21:13 28.10415 113.23467 8252 ft 284 kts 76°
2026-04-28 21:13 28.10649 113.25656 7925 ft 282 kts 84°
2026-04-28 21:14 28.10750 113.27880 7595 ft 279 kts 85°
2026-04-28 21:14 28.10835 113.30037 7267 ft 275 kts 84°
2026-04-28 21:14 28.10847 113.32157 6913 ft 266 kts 97°
2026-04-28 21:14 28.10119 113.34029 6575 ft 259 kts 127°
2026-04-28 21:15 28.08702 113.35265 6244 ft 262 kts 153°
2026-04-28 21:15 28.06910 113.35689 5898 ft 267 kts 173°
2026-04-28 21:15 28.05042 113.35776 5603 ft 266 kts 174°
2026-04-28 21:15 28.03189 113.35860 5291 ft 266 kts 174°
2026-04-28 21:16 28.01331 113.35960 5026 ft 263 kts 174°
2026-04-28 21:16 27.99555 113.36060 5000 ft 251 kts 173°
2026-04-28 21:16 27.97800 113.36165 4981 ft 250 kts 174°
2026-04-28 21:16 27.96070 113.36007 4901 ft 253 kts 201°
2026-04-28 21:17 27.94691 113.34818 4750 ft 252 kts 240°
2026-04-28 21:17 27.94200 113.32997 4494 ft 239 kts 274°
2026-04-28 21:17 27.94284 113.31150 4255 ft 237 kts 280°
2026-04-28 21:17 27.94395 113.29282 3996 ft 238 kts 277°
2026-04-28 21:18 27.94422 113.27398 3719 ft 240 kts 276°
2026-04-28 21:18 27.94419 113.25511 3413 ft 239 kts 282°
2026-04-28 21:18 27.94996 113.23908 3244 ft 213 kts 324°
2026-04-28 21:18 27.96265 113.23251 3165 ft 197 kts
2026-04-28 21:19 27.97603 113.23315 3030 ft 188 kts
2026-04-28 21:19 27.98885 113.23382 2867 ft 182 kts
2026-04-28 21:19 28.00152 113.23405 2639 ft 179 kts
2026-04-28 21:19 28.01383 113.23395 2433 ft 174 kts
2026-04-28 21:20 28.02539 113.23353 2375 ft 160 kts
2026-04-28 21:20 28.03652 113.23299 2322 ft 157 kts
2026-04-28 21:20 28.04719 113.23238 2351 ft 147 kts
2026-04-28 21:20 28.05652 113.23177 2338 ft 122 kts
2026-04-28 21:21 28.06473 113.23126 2342 ft 117 kts
2026-04-28 21:21 28.07282 113.23078 2209 ft 116 kts
2026-04-28 21:21 28.08088 113.23029 2050 ft 114 kts
2026-04-28 21:21 28.08882 113.22980 1909 ft 115 kts
2026-04-28 21:22 28.09687 113.22929 1756 ft 116 kts 360°
2026-04-28 21:22 28.10490 113.22880 1601 ft 116 kts
2026-04-28 21:22 28.11298 113.22829 1445 ft 117 kts 359°
2026-04-28 21:22 28.11856 113.22797 1340 ft 119 kts 359°
2026-04-28 21:23 28.12951 113.22732 1117 ft 119 kts 358°
2026-04-28 21:23 28.13783 113.22662 948 ft 119 kts 357°
2026-04-28 21:23 28.14615 113.22633 779 ft 120 kts
2026-04-28 21:23 28.15453 113.22597 660 ft 121 kts 357°
2026-04-28 21:24 28.16292 113.22530 489 ft 122 kts 356°
2026-04-28 21:24 28.17145 113.22472 336 ft 122 kts 356°
2026-04-28 21:24 28.17996 113.22423 233 ft 117 kts 357°
2026-04-28 21:24 28.18602 113.22384 228 ft 46 kts 356°
2026-04-28 21:25 28.18821 113.22370 228 ft 31 kts 355°
2026-04-28 21:25 28.19000 113.22357 228 ft 24 kts 356°
2026-04-28 21:25 28.19153 113.22324 228 ft 20 kts 331°
2026-04-28 21:25 28.19274 113.22242 228 ft 20 kts 328°
2026-04-28 21:26 28.19394 113.22166 228 ft 19 kts 333°
2026-04-28 21:26 28.19522 113.22130 228 ft 18 kts 336°
2026-04-28 21:26 28.19563 113.22093 228 ft 3 kts 345°
2026-04-28 21:26 28.19643 113.22115 228 ft 18 kts 15°
2026-04-28 21:27 28.19788 113.22129 228 ft 18 kts 351°
2026-04-28 21:27 28.19910 113.22099 228 ft 17 kts 352°
2026-04-28 21:27 28.20027 113.22098 228 ft 16 kts 353°
2026-04-28 21:27 28.20075 113.22008 228 ft 15 kts 265°
2026-04-28 21:28 28.20068 113.21889 228 ft 15 kts 268°
2026-04-28 21:28 28.20064 113.21766 228 ft 15 kts 260°
2026-04-28 21:28 28.19981 113.21722 228 ft 14 kts 176°
2026-04-28 21:28 28.19853 113.21731 228 ft 25 kts 176°
2026-04-28 21:29 28.19762 113.21680 228 ft 13 kts 253°
2026-04-28 21:29 28.19716 113.21596 228 ft 2 kts 256°
2026-04-28 21:29 28.19703 113.21568 228 ft 6 kts 249°
2026-04-28 21:29 28.19707 113.21520 228 ft 4 kts 280°
2026-04-28 21:30 28.19709 113.21508 228 ft 0 kts 280°